,,,PA_Meas_PMT16A,,PR_Meas_QMR101_102,,RH_Meas_QMH101,,SR_Meas_QMS101,,TA_Meas_QMH101,,GenWind,,GenWind,
date,time,status,PA,status,PR,status,RH,status,SR,status,TA,status,DirAvg,status,SpdAvg,
2008-04-06, 00:00:04,VALID,1006.55,VALID,0,VALID,97.2377,VALID,0.100563,VALID,23.4328,VALID,1,VALID,0,
2008-04-06, 00:01:04,VALID,1006.56,VALID,0,VALID,97.2301,VALID,0,VALID,23.4328,VALID,1,VALID,0,
2008-04-06, 00:02:04,VALID,1006.54,VALID,0,VALID,97.2072,VALID,0,VALID,23.4328,VALID,1,VALID,0,
2008-04-06, 00:03:04,VALID,1006.53,VALID,0,VALID,97.2225,VALID,0,VALID,23.4328,VALID,1,VALID,0,
2008-04-06, 00:04:04,VALID,1006.52,VALID,0,VALID,97.2301,VALID,0,VALID,23.4523,VALID,1,VALID,0.328516,
2008-04-06, 00:05:04,VALID,1006.51,VALID,0,VALID,97.2148,VALID,0,VALID,23.4718,VALID,10,VALID,0.570313,
2008-04-06, 00:06:04,VALID,1006.47,VALID,0,VALID,97.2301,VALID,0,VALID,23.4523,VALID,18,VALID,0.609766,
2008-04-06, 00:07:04,VALID,1006.45,VALID,0,VALID,97.2225,VALID,0,VALID,23.3939,VALID,22,VALID,0.55625,
2008-04-06, 00:08:04,VALID,1006.43,VALID,0,VALID,97.2148,VALID,0,VALID,23.3939,VALID,26,VALID,0.573828,
2008-04-06, 00:09:04,VALID,1006.44,VALID,0,VALID,97.2072,VALID,0,VALID,23.4328,VALID,30,VALID,0.0941406,
2008-04-06, 00:10:04,VALID,1006.43,VALID,0,VALID,97.2225,VALID,0,VALID,23.4328,VALID,30,VALID,0,
2008-04-06, 00:11:04,VALID,1006.38,VALID,0,VALID,97.2148,VALID,0,VALID,23.4523,VALID,30,VALID,0,
2008-04-06, 00:12:04,VALID,1006.35,VALID,0,VALID,97.2148,VALID,0,VALID,23.4523,VALID,30,VALID,0,
2008-04-06, 00:13:04,VALID,1006.35,VALID,0,VALID,97.2301,VALID,0,VALID,23.4718,VALID,30,VALID,0,
2008-04-06, 00:14:04,VALID,1006.33,VALID,0,VALID,97.2225,VALID,0,VALID,23.4718,VALID,30,VALID,0,
2008-04-06, 00:15:04,VALID,1006.31,VALID,0,VALID,97.2148,VALID,0,VALID,23.4718,VALID,30,VALID,0,
2008-04-06, 00:16:04,VALID,1006.28,VALID,0,VALID,97.2225,VALID,0,VALID,23.4718,VALID,30,VALID,0,
2008-04-06, 00:17:04,VALID,1006.25,VALID,0,VALID,97.2148,VALID,0,VALID,23.4718,VALID,30,VALID,0,
2008-04-06, 00:18:04,VALID,1006.22,VALID,0,VALID,97.2072,VALID,0,VALID,23.4718,VALID,30,VALID,0,
2008-04-06, 00:19:04,VALID,1006.23,VALID,0,VALID,97.2225,VALID,0,VALID,23.4912,VALID,30,VALID,0,
2008-04-06, 00:20:04,VALID,1006.21,VALID,0,VALID,97.2225,VALID,0.100563,VALID,23.4912,VALID,30,VALID,0,
2008-04-06, 00:21:04,VALID,1006.21,VALID,0,VALID,97.2148,VALID,0,VALID,23.4912,VALID,30,VALID,0,
2008-04-06, 00:22:04,VALID,1006.19,VALID,0,VALID,97.2148,VALID,0,VALID,23.4718,VALID,30,VALID,0,
2008-04-06, 00:23:04,VALID,1006.17,VALID,0,VALID,97.2148,VALID,0,VALID,23.4718,VALID,30,VALID,0,
2008-04-06, 00:24:04,VALID,1006.16,VALID,0,VALID,97.2148,VALID,0,VALID,23.4505,VALID,30,VALID,0,
2008-04-06, 00:25:04,VALID,1006.16,VALID,0,VALID,97.2301,VALID,0,VALID,23.4718,VALID,30,VALID,0,
2008-04-06, 00:26:04,VALID,1006.17,VALID,0,VALID,97.2301,VALID,0,VALID,23.4912,VALID,30,VALID,0,
2008-04-06, 00:27:04,VALID,1006.16,VALID,0,VALID,97.2225,VALID,0.100563,VALID,23.4718,VALID,30,VALID,0,
2008-04-06, 00:28:04,VALID,1006.16,VALID,0,VALID,97.2301,VALID,0,VALID,23.4894,VALID,30,VALID,0,
2008-04-06, 00:29:04,VALID,1006.15,VALID,0,VALID,97.2301,VALID,0,VALID,23.4912,VALID,30,VALID,0,
2008-04-06, 00:30:04,VALID,1006.13,VALID,0,VALID,97.2225,VALID,0,VALID,23.4912,VALID,30,VALID,0,
2008-04-06, 00:31:04,VALID,1006.14,VALID,0,VALID,97.1843,VALID,0,VALID,23.4311,VALID,30,VALID,0,
2008-04-06, 00:32:04,VALID,1006.11,VALID,0,VALID,97.2072,VALID,0,VALID,23.4134,VALID,30,VALID,0,
2008-04-06, 00:33:04,VALID,1006.13,VALID,0,VALID,97.2072,VALID,0,VALID,23.4134,VALID,30,VALID,0,
2008-04-06, 00:34:04,VALID,1006.13,VALID,0,VALID,97.1996,VALID,0,VALID,23.3939,VALID,30,VALID,0,
2008-04-06, 00:35:04,VALID,1006.11,VALID,0,VALID,97.1919,VALID,0,VALID,23.355,VALID,30,VALID,0,
2008-04-06, 00:36:04,VALID,1006.09,VALID,0,VALID,97.1843,VALID,0,VALID,23.3355,VALID,30,VALID,0,
2008-04-06, 00:37:04,VALID,1006.05,VALID,0,VALID,97.1919,VALID,0,VALID,23.3355,VALID,30,VALID,0,
2008-04-06, 00:38:04,VALID,1006.02,VALID,0,VALID,97.1919,VALID,0,VALID,23.3355,VALID,30,VALID,0.417969,
2008-04-06, 00:39:04,VALID,1005.98,VALID,0,VALID,97.2072,VALID,0,VALID,23.3567,VALID,30,VALID,0.317969,
2008-04-06, 00:40:04,VALID,1005.98,VALID,0,VALID,97.2301,VALID,0,VALID,23.355,VALID,30,VALID,0,
2008-04-06, 00:41:04,VALID,1005.99,VALID,0,VALID,97.1919,VALID,0,VALID,23.3355,VALID,30,VALID,0,
2008-04-06, 00:42:04,VALID,1005.95,VALID,0,VALID,97.2148,VALID,0,VALID,23.2966,VALID,30,VALID,0,
2008-04-06, 00:43:04,VALID,1005.94,VALID,0,VALID,97.2148,VALID,0,VALID,23.3373,VALID,30,VALID,0,
2008-04-06, 00:44:04,VALID,1005.92,VALID,0,VALID,97.2072,VALID,0,VALID,23.2966,VALID,30,VALID,0,
2008-04-06, 00:45:04,VALID,1005.89,VALID,0,VALID,97.2072,VALID,0,VALID,23.2983,VALID,30,VALID,0,
2008-04-06, 00:46:04,VALID,1005.9,VALID,0,VALID,97.2377,VALID,0,VALID,23.2771,VALID,30,VALID,0,
2008-04-06, 00:47:04,VALID,1005.89,VALID,0,VALID,97.2072,VALID,0,VALID,23.2789,VALID,30,VALID,0,
2008-04-06, 00:48:04,VALID,1005.87,VALID,0,VALID,97.2072,VALID,0,VALID,23.2382,VALID,30,VALID,0.442578,
2008-04-06, 00:49:04,VALID,1005.81,VALID,0,VALID,97.2759,VALID,0,VALID,23.2789,VALID,17,VALID,0.620313,
2008-04-06, 00:50:04,VALID,1005.81,VALID,0,VALID,97.2148,VALID,0,VALID,23.2382,VALID,11,VALID,0.584766,
2008-04-06, 00:51:04,VALID,1005.75,VALID,0,VALID,97.2225,VALID,0,VALID,23.24,VALID,11,VALID,0.671484,
2008-04-06, 00:52:04,VALID,1005.72,VALID,0,VALID,97.2225,VALID,0,VALID,23.1993,VALID,11,VALID,0.614062,
2008-04-06, 00:53:04,VALID,1005.71,VALID,0,VALID,97.2377,VALID,0,VALID,23.1993,VALID,8,VALID,0.688281,
2008-04-06, 00:54:04,VALID,1005.73,VALID,0,VALID,97.2759,VALID,0,VALID,23.2382,VALID,356,VALID,0.586328,
2008-04-06, 00:55:04,VALID,1005.73,VALID,0,VALID,97.2453,VALID,0,VALID,23.2577,VALID,356,VALID,0.611328,
2008-04-06, 00:56:04,VALID,1005.76,VALID,0,VALID,97.2759,VALID,0,VALID,23.2577,VALID,356,VALID,0.517578,
2008-04-06, 00:57:04,VALID,1005.74,VALID,0,VALID,97.2682,VALID,0,VALID,23.2771,VALID,356,VALID,0.388672,
2008-04-06, 00:58:04,VALID,1005.74,VALID,0,VALID,97.2987,VALID,0,VALID,23.3178,VALID,356,VALID,0.358984,
2008-04-06, 00:59:04,VALID,1005.75,VALID,0,VALID,97.2682,VALID,0,VALID,23.2966,VALID,356,VALID,0.475781,
2008-04-06, 01:00:04,VALID,1005.73,VALID,0,VALID,97.2453,VALID,0,VALID,23.2966,VALID,356,VALID,0.392188,
2008-04-06, 01:01:04,VALID,1005.73,VALID,0,VALID,97.2453,VALID,0,VALID,23.2771,VALID,356,VALID,0.409375,
2008-04-06, 01:02:04,VALID,1005.71,VALID,0,VALID,97.2453,VALID,0,VALID,23.2382,VALID,356,VALID,0.589063,
2008-04-06, 01:03:04,VALID,1005.71,VALID,0,VALID,97.2377,VALID,0,VALID,23.2187,VALID,357,VALID,0.527344,
2008-04-06, 01:04:04,VALID,1005.73,VALID,0,VALID,97.253,VALID,0,VALID,23.2187,VALID,357,VALID,0.521875,
2008-04-06, 01:05:04,VALID,1005.69,VALID,0,VALID,97.2835,VALID,0,VALID,23.2789,VALID,357,VALID,0.530078,
2008-04-06, 01:06:04,VALID,1005.68,VALID,0,VALID,97.2835,VALID,0,VALID,23.2771,VALID,357,VALID,0.451562,
2008-04-06, 01:07:04,VALID,1005.67,VALID,0,VALID,97.2911,VALID,0,VALID,23.3355,VALID,357,VALID,0.527344,
2008-04-06, 01:08:04,VALID,1005.66,VALID,0,VALID,97.2835,VALID,0,VALID,23.3355,VALID,357,VALID,0.56875,
2008-04-06, 01:09:04,VALID,1005.63,VALID,0,VALID,97.2606,VALID,0,VALID,23.316,VALID,357,VALID,0.612109,
2008-04-06, 01:10:04,VALID,1005.62,VALID,0,VALID,97.2682,VALID,0,VALID,23.2983,VALID,357,VALID,0.558594,
2008-04-06, 01:11:04,VALID,1005.62,VALID,0,VALID,97.2682,VALID,0,VALID,23.2771,VALID,357,VALID,0.600781,
2008-04-06, 01:12:04,VALID,1005.58,VALID,0,VALID,97.2606,VALID,0,VALID,23.2789,VALID,357,VALID,0.540625,
2008-04-06, 01:13:04,VALID,1005.6,VALID,0,VALID,97.2682,VALID,0,VALID,23.2382,VALID,357,VALID,0.514453,
2008-04-06, 01:14:04,VALID,1005.6,VALID,0,VALID,97.2377,VALID,0,VALID,23.2382,VALID,357,VALID,0.396094,
2008-04-06, 01:15:04,VALID,1005.57,VALID,0,VALID,97.253,VALID,0,VALID,23.2187,VALID,357,VALID,0.4,
2008-04-06, 01:16:04,VALID,1005.58,VALID,0,VALID,97.253,VALID,0,VALID,23.2187,VALID,357,VALID,0.464063,
2008-04-06, 01:17:04,VALID,1005.57,VALID,0,VALID,97.2606,VALID,0,VALID,23.2187,VALID,357,VALID,0.431641,
2008-04-06, 01:18:04,VALID,1005.58,VALID,0,VALID,97.2987,VALID,0,VALID,23.2577,VALID,357,VALID,0.433203,
2008-04-06, 01:19:04,VALID,1005.53,VALID,0,VALID,97.314,VALID,0,VALID,23.2364,VALID,356,VALID,0.564453,
2008-04-06, 01:20:04,VALID,1005.53,VALID,0,VALID,97.2759,VALID,0,VALID,23.2966,VALID,354,VALID,0.612109,
2008-04-06, 01:21:04,VALID,1005.5,VALID,0,VALID,97.2682,VALID,0,VALID,23.2771,VALID,355,VALID,0.624609,
2008-04-06, 01:22:04,VALID,1005.51,VALID,0,VALID,97.314,VALID,0,VALID,23.316,VALID,357,VALID,0.574219,
2008-04-06, 01:23:04,VALID,1005.51,VALID,0,VALID,97.314,VALID,0,VALID,23.3762,VALID,357,VALID,0.633984,
2008-04-06, 01:24:04,VALID,1005.52,VALID,0,VALID,97.3064,VALID,0,VALID,23.3744,VALID,355,VALID,0.574219,
2008-04-06, 01:25:04,VALID,1005.51,VALID,0,VALID,97.2911,VALID,0,VALID,23.3939,VALID,337,VALID,0.398828,
2008-04-06, 01:26:04,VALID,1005.52,VALID,0,VALID,97.2835,VALID,0,VALID,23.4134,VALID,348,VALID,0.552734,
2008-04-06, 01:27:04,VALID,1005.51,VALID,0,VALID,97.2835,VALID,0,VALID,23.4328,VALID,348,VALID,0.628516,
2008-04-06, 01:28:04,VALID,1005.5,VALID,0,VALID,97.2759,VALID,0,VALID,23.4328,VALID,351,VALID,0.629687,
2008-04-06, 01:29:04,VALID,1005.49,VALID,0,VALID,97.253,VALID,0,VALID,23.4134,VALID,333,VALID,0.614062,
2008-04-06, 01:30:04,VALID,1005.48,VALID,0,VALID,97.2377,VALID,0,VALID,23.4134,VALID,355,VALID,0.630859,
2008-04-06, 01:31:04,VALID,1005.47,VALID,0,VALID,97.2453,VALID,0.100563,VALID,23.4328,VALID,357,VALID,0.604688,
2008-04-06, 01:32:04,VALID,1005.45,VALID,0,VALID,97.253,VALID,0,VALID,23.4134,VALID,356,VALID,0.470313,
2008-04-06, 01:33:04,VALID,1005.46,VALID,0,VALID,97.2453,VALID,0,VALID,23.4328,VALID,355,VALID,0.296875,
2008-04-06, 01:34:04,VALID,1005.44,VALID,0,VALID,97.2606,VALID,0,VALID,23.4523,VALID,354,VALID,0.375,
2008-04-06, 01:35:04,VALID,1005.43,VALID,0,VALID,97.2301,VALID,0,VALID,23.4718,VALID,330,VALID,0.153906,
2008-04-06, 01:36:04,VALID,1005.42,VALID,0,VALID,97.2453,VALID,0,VALID,23.5302,VALID,336,VALID,0.457422,
2008-04-06, 01:37:04,VALID,1005.42,VALID,0,VALID,97.2301,VALID,0,VALID,23.5496,VALID,336,VALID,0.284375,
2008-04-06, 01:38:04,VALID,1005.37,VALID,0,VALID,97.2453,VALID,0,VALID,23.5691,VALID,356,VALID,0.203516,
2008-04-06, 01:39:04,VALID,1005.39,VALID,0,VALID,97.2453,VALID,0,VALID,23.5885,VALID,355,VALID,0.263281,
2008-04-06, 01:40:04,VALID,1005.33,VALID,0,VALID,97.2301,VALID,0,VALID,23.6275,VALID,352,VALID,0.308984,
2008-04-06, 01:41:04,VALID,1005.33,VALID,0,VALID,97.2606,VALID,0,VALID,23.6469,VALID,348,VALID,0.607422,
2008-04-06, 01:42:04,VALID,1005.33,VALID,0,VALID,97.253,VALID,0,VALID,23.6859,VALID,352,VALID,1.05078,
2008-04-06, 01:43:04,VALID,1005.28,VALID,0,VALID,97.2377,VALID,0,VALID,23.7443,VALID,9,VALID,0.486719,
2008-04-06, 01:44:04,VALID,1005.27,VALID,0,VALID,97.2072,VALID,0,VALID,23.7637,VALID,354,VALID,0.657422,
2008-04-06, 01:45:04,VALID,1005.27,VALID,0,VALID,97.1843,VALID,0,VALID,23.7832,VALID,358,VALID,0.422656,
2008-04-06, 01:46:04,VALID,1005.26,VALID,0,VALID,97.1462,VALID,0,VALID,23.7425,VALID,323,VALID,0.546875,
2008-04-06, 01:47:04,VALID,1005.24,VALID,0,VALID,97.1614,VALID,0,VALID,23.785,VALID,353,VALID,0.941016,
2008-04-06, 01:48:04,VALID,1005.23,VALID,0,VALID,97.1614,VALID,0,VALID,23.8221,VALID,349,VALID,0.714844,
2008-04-06, 01:49:04,VALID,1005.25,VALID,0,VALID,97.1233,VALID,0,VALID,23.8221,VALID,355,VALID,0.951172,
2008-04-06, 01:50:04,VALID,1005.21,VALID,0,VALID,97.1233,VALID,0,VALID,23.8611,VALID,360,VALID,0.655859,
2008-04-06, 01:51:04,VALID,1005.23,VALID,0,VALID,97.1004,VALID,0,VALID,23.8416,VALID,356,VALID,0.739844,
2008-04-06, 01:52:04,VALID,1005.19,VALID,0,VALID,97.0699,VALID,0,VALID,23.8434,VALID,355,VALID,0.424219,
2008-04-06, 01:53:04,VALID,1005.19,VALID,0,VALID,97.0622,VALID,0,VALID,23.8221,VALID,9,VALID,0.648828,
2008-04-06, 01:54:04,VALID,1005.2,VALID,0,VALID,97.0775,VALID,0,VALID,23.7814,VALID,350,VALID,0.582031,
2008-04-06, 01:55:04,VALID,1005.21,VALID,0,VALID,97.047,VALID,0,VALID,23.8221,VALID,355,VALID,0.216016,
2008-04-06, 01:56:04,VALID,1005.22,VALID,0,VALID,97.0394,VALID,0,VALID,23.8027,VALID,357,VALID,0.353516,
2008-04-06, 01:57:04,VALID,1005.25,VALID,0,VALID,97.047,VALID,0,VALID,23.8027,VALID,348,VALID,0.149609,
2008-04-06, 01:58:04,VALID,1005.23,VALID,0,VALID,97.0394,VALID,0,VALID,23.7832,VALID,348,VALID,0.00390625,
2008-04-06, 01:59:04,VALID,1005.23,VALID,0,VALID,97.0165,VALID,0,VALID,23.7832,VALID,350,VALID,0.428906,
2008-04-06, 02:00:04,VALID,1005.22,VALID,0,VALID,97.0317,VALID,0,VALID,23.8027,VALID,350,VALID,0.507031,
2008-04-06, 02:01:04,VALID,1005.26,VALID,0,VALID,97.0241,VALID,0,VALID,23.7832,VALID,350,VALID,0.425,
2008-04-06, 02:02:04,VALID,1005.27,VALID,0,VALID,97.0165,VALID,0.100563,VALID,23.7832,VALID,350,VALID,0.0289063,
2008-04-06, 02:03:04,VALID,1005.25,VALID,0,VALID,97.0088,VALID,0,VALID,23.7832,VALID,349,VALID,0.119141,
2008-04-06, 02:04:04,VALID,1005.26,VALID,0,VALID,97.0165,VALID,0,VALID,23.7637,VALID,348,VALID,0,
2008-04-06, 02:05:04,VALID,1005.29,VALID,0,VALID,97.0317,VALID,0,VALID,23.7637,VALID,349,VALID,0.0726563,
2008-04-06, 02:06:04,VALID,1005.27,VALID,0,VALID,97.0394,VALID,0,VALID,23.7832,VALID,352,VALID,0.158984,
2008-04-06, 02:07:04,VALID,1005.26,VALID,0,VALID,97.0317,VALID,0,VALID,23.7619,VALID,358,VALID,0.423047,
2008-04-06, 02:08:04,VALID,1005.25,VALID,0,VALID,97.0241,VALID,0,VALID,23.8027,VALID,357,VALID,0.617578,
2008-04-06, 02:09:04,VALID,1005.26,VALID,0,VALID,97.0088,VALID,0,VALID,23.8239,VALID,354,VALID,0.278906,
2008-04-06, 02:10:04,VALID,1005.25,VALID,0,VALID,96.9783,VALID,0,VALID,23.7832,VALID,354,VALID,0.41875,
2008-04-06, 02:11:04,VALID,1005.21,VALID,0,VALID,96.9707,VALID,0,VALID,23.7637,VALID,349,VALID,0.674609,
2008-04-06, 02:12:04,VALID,1005.22,VALID,0,VALID,96.9402,VALID,0,VALID,23.7655,VALID,360,VALID,0.701172,
2008-04-06, 02:13:04,VALID,1005.24,VALID,0,VALID,96.9402,VALID,0,VALID,23.7248,VALID,356,VALID,0.689453,
2008-04-06, 02:14:04,VALID,1005.2,VALID,0,VALID,96.9249,VALID,0,VALID,23.6859,VALID,350,VALID,0.640234,
2008-04-06, 02:15:04,VALID,1005.18,VALID,0,VALID,96.9631,VALID,0,VALID,23.6859,VALID,350,VALID,0.35,
2008-04-06, 02:16:04,VALID,1005.17,VALID,0,VALID,96.9707,VALID,0,VALID,23.7053,VALID,353,VALID,0.598828,
2008-04-06, 02:17:04,VALID,1005.17,VALID,0,VALID,96.986,VALID,0,VALID,23.7053,VALID,353,VALID,0,
2008-04-06, 02:18:04,VALID,1005.16,VALID,0,VALID,96.9249,VALID,0,VALID,23.6664,VALID,353,VALID,0.358984,
2008-04-06, 02:19:04,VALID,1005.14,VALID,0,VALID,96.902,VALID,0,VALID,23.6275,VALID,353,VALID,0.221484,
2008-04-06, 02:20:04,VALID,1005.13,VALID,0,VALID,96.9554,VALID,0,VALID,23.6469,VALID,353,VALID,0.607031,
2008-04-06, 02:21:04,VALID,1005.14,VALID,0,VALID,97.0088,VALID,0,VALID,23.6859,VALID,341,VALID,0.455078,
2008-04-06, 02:22:04,VALID,1005.1,VALID,0,VALID,96.9478,VALID,0,VALID,23.6682,VALID,341,VALID,0.285547,
2008-04-06, 02:23:04,VALID,1005.08,VALID,0,VALID,96.9707,VALID,0,VALID,23.6469,VALID,341,VALID,0.332031,
2008-04-06, 02:24:04,VALID,1005.07,VALID,0,VALID,96.9326,VALID,0.100563,VALID,23.6469,VALID,341,VALID,0.385547,
2008-04-06, 02:25:04,VALID,1005.05,VALID,0,VALID,96.9173,VALID,0,VALID,23.5885,VALID,15,VALID,0.510547,
2008-04-06, 02:26:04,VALID,1005.08,VALID,0,VALID,96.9554,VALID,0,VALID,23.6275,VALID,7,VALID,0.398047,
2008-04-06, 02:27:04,VALID,1005.07,VALID,0,VALID,96.9783,VALID,0,VALID,23.6275,VALID,3,VALID,0.347266,
2008-04-06, 02:28:04,VALID,1005.06,VALID,0,VALID,96.9478,VALID,0,VALID,23.6487,VALID,3,VALID,0.334766,
2008-04-06, 02:29:04,VALID,1005.04,VALID,0,VALID,96.9249,VALID,0,VALID,23.6275,VALID,350,VALID,0.376953,
2008-04-06, 02:30:04,VALID,1005.03,VALID,0,VALID,96.9402,VALID,0,VALID,23.6275,VALID,347,VALID,0.378906,
2008-04-06, 02:31:04,VALID,1005.01,VALID,0,VALID,96.8563,VALID,0,VALID,23.5691,VALID,347,VALID,0.448047,
2008-04-06, 02:32:04,VALID,1004.97,VALID,0,VALID,96.8181,VALID,0,VALID,23.5107,VALID,6,VALID,0.639063,
2008-04-06, 02:33:04,VALID,1004.98,VALID,0,VALID,96.8334,VALID,0,VALID,23.4718,VALID,8,VALID,0.480859,
2008-04-06, 02:34:04,VALID,1005,VALID,0,VALID,96.8258,VALID,0,VALID,23.4541,VALID,8,VALID,0.497656,
2008-04-06, 02:35:04,VALID,1005.01,VALID,0,VALID,96.7952,VALID,0,VALID,23.3744,VALID,8,VALID,0.589063,
2008-04-06, 02:36:04,VALID,1005,VALID,0,VALID,96.8334,VALID,0,VALID,23.3373,VALID,8,VALID,0.466797,
2008-04-06, 02:37:04,VALID,1005.02,VALID,0,VALID,96.902,VALID,0,VALID,23.316,VALID,8,VALID,0.345703,
2008-04-06, 02:38:04,VALID,1005.01,VALID,0,VALID,96.9783,VALID,0,VALID,23.316,VALID,8,VALID,0,
2008-04-06, 02:39:04,VALID,1005.01,VALID,0,VALID,96.9631,VALID,0,VALID,23.2966,VALID,8,VALID,0,
2008-04-06, 02:40:04,VALID,1005,VALID,0,VALID,96.9554,VALID,0,VALID,23.2577,VALID,8,VALID,0,
2008-04-06, 02:41:04,VALID,1005,VALID,0,VALID,96.9783,VALID,0,VALID,23.2577,VALID,8,VALID,0,
2008-04-06, 02:42:04,VALID,1005,VALID,0,VALID,97.0317,VALID,0,VALID,23.2577,VALID,8,VALID,0.232812,
2008-04-06, 02:43:04,VALID,1004.99,VALID,0,VALID,97.0546,VALID,0,VALID,23.2577,VALID,7,VALID,0.473047,
2008-04-06, 02:44:04,VALID,1004.98,VALID,0,VALID,97.0088,VALID,0,VALID,23.1993,VALID,7,VALID,0.415625,
2008-04-06, 02:45:04,VALID,1005,VALID,0,VALID,97.0241,VALID,0,VALID,23.1798,VALID,7,VALID,0.510156,
2008-04-06, 02:46:04,VALID,1005,VALID,0,VALID,97.1233,VALID,0,VALID,23.2382,VALID,4,VALID,0.405469,
2008-04-06, 02:47:04,VALID,1005.01,VALID,0,VALID,97.108,VALID,0,VALID,23.2382,VALID,356,VALID,0.508594,
2008-04-06, 02:48:04,VALID,1004.99,VALID,0,VALID,97.108,VALID,0,VALID,23.2187,VALID,346,VALID,0.471094,
2008-04-06, 02:49:04,VALID,1005.02,VALID,0,VALID,97.1462,VALID,0,VALID,23.2983,VALID,347,VALID,0.16875,
2008-04-06, 02:50:04,VALID,1005.01,VALID,0,VALID,97.1767,VALID,0,VALID,23.316,VALID,330,VALID,0.176953,
2008-04-06, 02:51:04,VALID,1005.01,VALID,0,VALID,97.1462,VALID,0,VALID,23.3355,VALID,353,VALID,0.566406,
2008-04-06, 02:52:04,VALID,1005.01,VALID,0,VALID,97.108,VALID,0,VALID,23.316,VALID,353,VALID,0.477734,
2008-04-06, 02:53:04,VALID,1005.01,VALID,0,VALID,97.0928,VALID,0,VALID,23.2966,VALID,353,VALID,0.520312,
2008-04-06, 02:54:04,VALID,1005.04,VALID,0,VALID,97.0394,VALID,0,VALID,23.2771,VALID,353,VALID,0.462891,
2008-04-06, 02:55:04,VALID,1005.01,VALID,0,VALID,97.0012,VALID,0,VALID,23.2187,VALID,353,VALID,0.389844,
2008-04-06, 02:56:04,VALID,1005.03,VALID,0,VALID,97.0088,VALID,0,VALID,23.1993,VALID,353,VALID,0.303516,
2008-04-06, 02:57:04,VALID,1004.99,VALID,0,VALID,97.0088,VALID,0,VALID,23.1798,VALID,354,VALID,0.528125,
2008-04-06, 02:58:04,VALID,1005.01,VALID,0,VALID,97.0851,VALID,0,VALID,23.1798,VALID,327,VALID,0.392578,
2008-04-06, 02:59:04,VALID,1005.03,VALID,0,VALID,97.0928,VALID,0,VALID,23.2382,VALID,352,VALID,0.537109,
2008-04-06, 03:00:04,VALID,1005.03,VALID,0,VALID,97.1233,VALID,0,VALID,23.24,VALID,352,VALID,0.567578,
2008-04-06, 03:01:04,VALID,1005.03,VALID,0,VALID,97.1614,VALID,0.100563,VALID,23.2948,VALID,344,VALID,0.678125,
2008-04-06, 03:02:04,VALID,1005.03,VALID,0,VALID,97.1309,VALID,0,VALID,23.355,VALID,359,VALID,0.522266,
2008-04-06, 03:03:04,VALID,1005.03,VALID,0,VALID,97.1538,VALID,0,VALID,23.3939,VALID,359,VALID,0.211328,
2008-04-06, 03:04:04,VALID,1005.02,VALID,0,VALID,97.108,VALID,0,VALID,23.4134,VALID,348,VALID,0.197656,
2008-04-06, 03:05:04,VALID,1005.05,VALID,0,VALID,97.0928,VALID,0,VALID,23.4134,VALID,344,VALID,0.602734,
2008-04-06, 03:06:04,VALID,1005.06,VALID,0,VALID,97.0699,VALID,0,VALID,23.4151,VALID,327,VALID,0.4125,
2008-04-06, 03:07:04,VALID,1005.06,VALID,0,VALID,97.0317,VALID,0,VALID,23.4134,VALID,346,VALID,0.525,
2008-04-06, 03:08:04,VALID,1005.02,VALID,0,VALID,96.9402,VALID,0,VALID,23.3939,VALID,346,VALID,0.446484,
2008-04-06, 03:09:04,VALID,1005.01,VALID,0,VALID,96.9249,VALID,0,VALID,23.3744,VALID,346,VALID,0.503125,
2008-04-06, 03:10:04,VALID,1005,VALID,0,VALID,96.8868,VALID,0,VALID,23.3355,VALID,348,VALID,0.608203,
2008-04-06, 03:11:04,VALID,1004.98,VALID,0,VALID,96.8715,VALID,0,VALID,23.2966,VALID,359,VALID,0.628516,
2008-04-06, 03:12:04,VALID,1004.99,VALID,0,VALID,96.9097,VALID,0.100563,VALID,23.2754,VALID,359,VALID,0.472266,
2008-04-06, 03:13:04,VALID,1004.99,VALID,0,VALID,96.9326,VALID,0,VALID,23.2594,VALID,359,VALID,0.589453,
2008-04-06, 03:14:04,VALID,1004.93,VALID,0,VALID,96.9478,VALID,0,VALID,23.2382,VALID,358,VALID,0.485156,
2008-04-06, 03:15:04,VALID,1004.94,VALID,0,VALID,97.0088,VALID,0,VALID,23.2789,VALID,351,VALID,0.596094,
2008-04-06, 03:16:04,VALID,1004.95,VALID,0,VALID,97.0317,VALID,0,VALID,23.2364,VALID,4,VALID,0.576953,
2008-04-06, 03:17:04,VALID,1004.92,VALID,0,VALID,97.0317,VALID,0,VALID,23.2771,VALID,9,VALID,0.392969,
2008-04-06, 03:18:04,VALID,1004.89,VALID,0,VALID,97.0622,VALID,0,VALID,23.3178,VALID,9,VALID,0.230078,
2008-04-06, 03:19:04,VALID,1004.91,VALID,0,VALID,96.9936,VALID,0,VALID,23.2771,VALID,8,VALID,0.290234,
2008-04-06, 03:20:04,VALID,1004.88,VALID,0,VALID,96.986,VALID,0,VALID,23.2382,VALID,8,VALID,0.45,
2008-04-06, 03:21:04,VALID,1004.86,VALID,0,VALID,96.9631,VALID,0,VALID,23.2382,VALID,8,VALID,0.476563,
2008-04-06, 03:22:04,VALID,1004.86,VALID,0,VALID,96.9707,VALID,0,VALID,23.2187,VALID,28,VALID,0.419531,
2008-04-06, 03:23:04,VALID,1004.87,VALID,0,VALID,97.0088,VALID,0,VALID,23.24,VALID,28,VALID,0.507422,
2008-04-06, 03:24:04,VALID,1004.88,VALID,0,VALID,96.986,VALID,0,VALID,23.2187,VALID,28,VALID,0.553906,
2008-04-06, 03:25:04,VALID,1004.88,VALID,0,VALID,97.0165,VALID,0,VALID,23.24,VALID,28,VALID,0.511719,
2008-04-06, 03:26:04,VALID,1004.87,VALID,0,VALID,97.0088,VALID,0,VALID,23.2187,VALID,28,VALID,0.557422,
2008-04-06, 03:27:04,VALID,1004.88,VALID,0,VALID,97.0317,VALID,0,VALID,23.24,VALID,28,VALID,0.592969,
2008-04-06, 03:28:04,VALID,1004.88,VALID,0,VALID,97.0394,VALID,0,VALID,23.2187,VALID,28,VALID,0.452344,
2008-04-06, 03:29:04,VALID,1004.89,VALID,0,VALID,97.0699,VALID,0,VALID,23.2577,VALID,27,VALID,0.410156,
2008-04-06, 03:30:04,VALID,1004.92,VALID,0,VALID,97.0165,VALID,0,VALID,23.2187,VALID,27,VALID,0.438281,
2008-04-06, 03:31:04,VALID,1004.9,VALID,0,VALID,96.9783,VALID,0,VALID,23.1586,VALID,27,VALID,0.551953,
2008-04-06, 03:32:04,VALID,1004.93,VALID,0,VALID,97.0088,VALID,0,VALID,23.1603,VALID,27,VALID,0.550391,
2008-04-06, 03:33:04,VALID,1004.89,VALID,0,VALID,96.986,VALID,0,VALID,23.1214,VALID,27,VALID,0.653516,
2008-04-06, 03:34:04,VALID,1004.87,VALID,0,VALID,97.0394,VALID,0,VALID,23.1603,VALID,346,VALID,0.507031,
2008-04-06, 03:35:04,VALID,1004.87,VALID,0,VALID,96.9936,VALID,0,VALID,23.1214,VALID,359,VALID,0.642187,
2008-04-06, 03:36:04,VALID,1004.88,VALID,0,VALID,97.0775,VALID,0,VALID,23.1214,VALID,351,VALID,0.641016,
2008-04-06, 03:37:04,VALID,1004.9,VALID,0,VALID,97.0928,VALID,0,VALID,23.1603,VALID,328,VALID,0.486719,
2008-04-06, 03:38:04,VALID,1004.88,VALID,0,VALID,97.108,VALID,0,VALID,23.1603,VALID,330,VALID,0.554297,
2008-04-06, 03:39:04,VALID,1004.88,VALID,0,VALID,97.1004,VALID,0,VALID,23.2205,VALID,353,VALID,0.476953,
2008-04-06, 03:40:04,VALID,1004.86,VALID,0,VALID,97.108,VALID,0,VALID,23.2187,VALID,352,VALID,0.424219,
2008-04-06, 03:41:04,VALID,1004.87,VALID,0,VALID,97.047,VALID,0,VALID,23.2187,VALID,352,VALID,0.39375,
2008-04-06, 03:42:04,VALID,1004.86,VALID,0,VALID,97.0088,VALID,0,VALID,23.1798,VALID,352,VALID,0.486719,
2008-04-06, 03:43:04,VALID,1004.84,VALID,0,VALID,96.986,VALID,0,VALID,23.1197,VALID,352,VALID,0.49375,
2008-04-06, 03:44:04,VALID,1004.82,VALID,0,VALID,96.9936,VALID,0,VALID,23.1214,VALID,352,VALID,0.457031,
2008-04-06, 03:45:04,VALID,1004.83,VALID,0,VALID,97.0699,VALID,0,VALID,23.1603,VALID,352,VALID,0.422266,
2008-04-06, 03:46:04,VALID,1004.87,VALID,0,VALID,97.0317,VALID,0,VALID,23.1409,VALID,352,VALID,0.373437,
2008-04-06, 03:47:04,VALID,1004.82,VALID,0,VALID,97.0088,VALID,0,VALID,23.1214,VALID,352,VALID,0.348047,
2008-04-06, 03:48:04,VALID,1004.85,VALID,0,VALID,97.047,VALID,0,VALID,23.1409,VALID,352,VALID,0.425391,